Location: ??
(35.5052°N, 139.7262°E)
Time: 03:11:58
(UTC+00:00)

Cosmos 1937 Rocket - Pass Details

Date: 20 June 2021
Orbit: 746 x 781 km, 74.0° (Epoch: 26 July)

Event Time Altitude Azimuth Distance (km) Brightness Sun altitude
Rises 15:30:37 0° 348° (NNW) 3,271 7.7 -30.0°
Reaches altitude 10° 15:33:06 10° 355° (N) 2,339 6.8 -29.9°
Maximum altitude 15:38:14 48° 69° (ENE) 1,016 4.2 -29.6°
Enters shadow 15:38:24 47° 75° (ENE) 1,018 4.2 -29.6°
